Theta_e
328 319 316 309 296 295 291 296 299 301 308 312 311 308 309 310 309 302 326 330 333 336 338 341 343 345 344 342 340 339 337 336 336 336 335 335 334 333 333 333 333 332 333 333 333 333 333 333 333
324 316 311 303 292 287 288 295 297 300 310 316 316 314 310 308 318 323 327 331 335 337 338 340 342 345 343 342 340 338 336 336 336 335 335 334 333 334 333 331 332 332 332 332 333 333 333 334 334
314 314 306 299 292 287 289 295 298 308 317 314 313 314 312 312 317 325 328 333 336 337 338 339 341 344 343 341 340 339 338 335 335 335 334 333 332 332 331 331 331 332 332 333 333 334 334 333 333
309 308 303 295 291 294 294 296 298 304 317 319 317 312 315 322 324 328 332 335 335 336 338 339 341 342 341 340 339 338 337 335 335 334 333 333 332 331 332 333 334 332 332 334 335 336 336 336 336
307 303 296 291 293 296 297 300 300 301 309 315 315 310 310 322 327 330 332 335 334 335 336 337 339 340 340 340 339 338 337 335 334 333 333 333 333 333 333 334 334 335 336 336 336 336 336 336 335
302 300 292 290 293 298 300 300 301 300 306 311 313 310 311 321 326 331 333 332 333 334 333 335 333 336 337 337 338 337 337 335 333 333 333 333 333 333 334 335 335 336 336 336 335 335 335 336 335
300 296 292 292 293 295 299 303 299 299 302 311 315 309 313 322 326 332 331 332 333 333 332 332 332 332 332 334 334 335 335 334 335 334 333 334 334 334 334 333 334 335 335 335 335 334 337 336 335
302 298 292 293 294 296 301 301 302 304 305 317 317 310 310 321 328 331 329 331 332 332 332 330 330 331 330 329 329 331 332 333 334 333 332 330 330 330 329 328 333 334 335 335 334 336 337 336 333
303 294 294 294 294 297 301 300 303 313 311 314 318 314 318 325 328 327 328 328 329 331 331 330 329 329 326 326 326 327 329 330 330 329 326 324 325 325 328 327 331 334 336 336 336 333 333 332 329
299 292 296 299 299 299 302 302 302 305 310 312 313 316 323 325 324 323 323 323 325 325 326 329 329 328 326 329 324 324 325 325 324 324 323 324 327 328 330 323 323 326 328 327 324 323 321 323 321
299 296 300 300 302 303 303 301 304 303 300 306 308 313 321 323 322 321 323 323 323 324 325 329 328 328 326 325 321 321 321 321 322 323 325 327 328 325 318 316 315 315 311 309 306 305 308 317 314
295 300 301 304 305 304 302 303 301 303 304 309 313 316 319 321 321 322 321 322 321 322 325 329 328 326 324 323 322 320 322 322 320 322 326 323 322 315 311 307 308 306 307 304 301 302 309 313 307
292 297 299 300 300 301 306 304 302 302 305 308 310 316 317 321 322 323 324 324 321 321 325 328 326 325 324 323 320 322 325 319 317 319 323 321 315 310 307 306 305 303 301 299 298 299 307 307 303
295 296 295 296 297 298 297 301 304 304 307 306 308 313 316 320 321 322 323 322 322 322 323 327 324 324 324 323 322 323 321 315 315 316 319 315 311 307 305 303 302 301 299 296 295 297 303 303 301
296 290 291 292 294 295 303 296 298 305 307 307 308 314 314 319 321 322 322 322 323 324 324 324 323 323 322 322 321 319 315 312 310 310 312 309 307 304 303 302 300 299 296 294 294 296 300 300 297
289 287 282 289 292 295 299 284 295 302 305 306 309 312 315 314 320 322 322 323 324 324 323 324 323 321 321 320 315 312 308 306 305 306 306 305 304 302 301 300 299 298 294 292 292 294 297 296 294
283 275 280 284 291 291 295 289 296 299 305 305 310 311 311 313 314 319 320 322 323 324 324 322 321 321 318 315 310 307 304 302 301 301 302 302 301 299 299 298 296 295 293 291 292 291 295 294 292
274 277 281 281 286 288 286 286 292 296 299 300 303 308 312 310 310 314 317 320 322 322 322 322 321 317 312 309 306 303 301 298 299 299 300 299 298 296 295 295 294 293 291 290 291 291 292 293 291
283 282 280 283 287 286 285 286 288 293 294 295 298 302 303 311 313 315 316 318 319 321 321 320 315 311 308 306 304 301 299 296 296 298 299 298 297 296 294 293 292 292 290 290 290 292 292 289 289
282 280 280 283 286 285 284 284 289 292 292 294 295 299 302 305 313 314 315 317 318 319 320 317 313 309 309 309 309 303 298 298 296 297 297 297 296 295 294 291 290 290 290 290 290 289 287 287 287
280 277 278 278 283 285 284 281 283 289 292 294 295 297 300 302 306 313 313 315 318 318 318 314 311 310 309 309 302 297 296 296 295 295 295 295 295 294 292 291 290 289 289 288 288 288 288 285 285
276 282 281 280 278 274 282 272 281 284 288 291 293 294 298 301 304 311 313 314 315 317 317 314 310 309 307 303 302 298 299 295 295 294 294 293 293 292 292 290 289 289 289 287 286 287 286 285 283
279 283 282 281 279 279 278 276 279 284 285 289 293 295 298 301 303 307 311 314 316 317 314 313 310 309 305 304 302 301 298 296 294 292 291 291 291 291 290 289 289 288 287 286 285 285 285 284 282
285 282 282 281 276 272 276 276 277 280 284 288 292 295 298 300 302 307 311 314 315 316 313 310 309 307 303 303 302 301 294 292 291 291 290 289 289 289 289 289 288 287 286 285 284 284 283 283 282
282 278 268 263 269 269 279 275 279 286 288 289 290 294 298 300 303 306 308 311 313 313 311 309 308 303 303 302 300 297 295 294 292 290 289 288 287 287 287 288 287 286 285 285 284 283 282 282 281
279 277 269 262 268 271 279 271 279 287 290 293 295 295 297 299 303 304 304 304 304 309 309 309 306 301 300 299 296 295 294 293 292 291 290 288 287 287 287 287 286 286 285 285 285 282 281 281 280
279 276 281 276 276 273 271 277 285 289 290 291 293 294 296 298 301 301 301 302 302 303 305 304 301 299 299 297 295 294 293 292 291 290 290 288 287 287 286 286 285 285 285 284 283 282 282 281 280
282 284 276 272 269 267 270 273 278 284 286 288 288 290 295 298 299 299 299 302 301 301 301 301 299 296 295 295 294 293 293 292 291 290 288 288 287 287 286 286 285 285 284 284 283 282 281 281 280
278 279 279 278 274 272 271 275 287 284 285 285 286 289 294 299 296 295 295 297 298 298 298 297 296 295 294 294 293 292 291 291 291 289 288 288 287 287 286 285 285 285 284 283 282 281 280 280 280
282 279 281 275 272 276 275 276 289 289 288 287 285 291 296 295 293 293 293 293 294 295 295 295 295 294 294 293 293 292 291 290 289 288 288 288 287 286 286 285 284 284 283 282 281 280 280 279 279
Wind_Speed
9 5 2 5 4 5 3 6 2 7 5 5 4 6 11 6 6 7 2 3 13 16 13 13 19 18 18 18 18 17 15 15 14 14 14 13 12 12 11 11 10 11 10 11 11 11 11 11 11
5 2 5 3 5 2 6 4 5 3 3 2 4 3 2 4 3 3 8 7 17 13 12 11 18 19 19 19 17 16 15 15 14 13 13 12 11 11 11 10 10 9 10 10 10 10 10 10 10
1 4 3 5 4 6 6 5 3 4 4 3 2 1 0 2 1 10 3 13 14 13 12 12 17 17 18 18 17 15 14 15 14 13 12 12 11 10 10 10 8 9 9 9 10 9 9 9 9
3 5 4 3 8 8 8 2 2 5 1 1 1 3 3 3 4 8 11 14 14 10 11 16 18 18 17 17 17 16 15 15 14 13 12 11 11 10 8 8 7 7 7 7 8 8 8 8 10
4 3 2 3 6 5 4 4 3 2 3 3 5 4 3 2 3 11 13 12 16 10 10 12 18 19 18 18 18 17 16 16 15 14 12 11 10 9 8 7 5 5 6 7 7 7 8 10 9
2 3 1 5 6 6 5 4 4 3 3 3 5 5 4 1 9 12 12 11 13 13 10 11 13 16 18 18 17 16 15 15 14 14 13 12 11 9 8 6 5 6 7 7 5 5 6 8 9
5 3 6 5 4 5 6 6 5 4 4 6 4 7 1 6 7 12 10 8 14 11 11 7 10 11 13 14 15 14 14 14 13 12 12 11 10 9 7 5 5 5 6 6 4 2 7 10 13
3 3 4 6 7 11 5 3 3 5 4 2 3 6 6 7 11 10 9 11 12 10 10 10 7 8 8 9 13 13 12 12 11 10 9 8 8 8 7 5 3 5 6 6 2 5 12 13 16
3 2 10 6 6 7 2 4 2 0 3 3 4 1 2 17 16 13 11 12 14 11 13 11 10 7 6 6 8 10 11 11 10 9 9 7 4 5 5 5 4 3 5 7 8 10 12 15 16
4 4 6 6 6 5 9 8 7 4 5 4 2 1 7 18 18 21 20 17 19 18 17 11 12 11 7 7 6 5 5 4 4 5 5 4 5 4 5 5 7 7 10 12 13 11 12 10 5
3 5 3 2 6 7 11 5 6 7 7 6 6 4 13 16 19 21 19 21 21 21 15 14 12 12 10 6 4 2 2 3 2 4 4 4 5 3 3 3 3 3 6 4 6 5 4 7 6
6 4 5 6 8 8 7 5 5 11 12 7 8 4 14 18 19 21 21 22 21 20 19 16 15 13 10 7 5 4 4 3 3 3 5 4 4 4 3 3 4 4 3 5 5 3 5 9 9
4 6 10 13 15 14 10 15 12 11 7 10 7 6 15 19 22 18 15 14 15 18 20 17 15 14 12 10 6 6 6 3 4 3 4 5 5 5 4 4 4 4 4 4 4 4 5 8 8
5 7 10 7 11 12 17 20 7 3 8 9 9 10 16 23 25 19 16 16 21 19 22 17 15 16 14 11 11 9 5 4 3 3 3 6 5 5 5 4 4 4 4 4 4 4 5 7 8
7 12 12 7 7 8 7 30 30 10 10 13 15 11 16 20 21 23 20 20 19 17 18 20 17 16 17 14 12 8 6 4 4 2 5 6 6 6 7 5 4 3 4 6 5 5 6 8 7
6 3 4 5 11 6 8 39 7 4 12 16 16 13 15 19 22 23 19 19 17 16 17 15 13 14 14 14 10 8 6 5 4 2 4 5 6 7 5 5 4 4 4 4 4 5 6 6 7
5 5 6 7 5 9 9 24 8 10 10 14 10 10 9 13 15 17 16 19 19 18 17 15 13 14 13 10 9 9 9 6 5 4 4 6 6 6 6 5 4 5 4 4 4 4 4 7 7
6 8 8 12 5 20 23 32 16 12 14 9 8 10 12 13 15 13 16 17 18 17 17 17 12 11 12 8 8 6 6 4 4 4 5 6 5 7 6 5 5 5 5 4 4 6 5 4 7
9 13 18 15 14 17 22 29 21 17 11 17 11 14 9 14 16 18 13 14 17 18 19 18 16 13 12 9 9 6 6 4 4 4 7 7 6 7 6 4 5 4 5 5 5 6 9 5 4
8 11 19 17 12 13 18 28 19 17 19 20 20 16 16 13 13 15 17 18 20 21 20 19 19 17 12 11 8 5 6 4 4 4 6 6 7 7 7 6 5 5 5 5 4 4 4 3 3
6 8 17 18 16 15 21 28 23 20 23 22 25 23 20 20 16 18 20 21 20 21 21 20 20 19 14 13 9 8 7 6 4 5 4 5 7 5 6 6 6 6 4 4 4 5 6 4 3
11 12 15 14 10 12 6 22 22 19 21 21 24 24 20 21 16 17 21 23 23 21 19 21 20 19 16 16 13 18 10 9 4 5 5 6 7 7 6 6 6 6 5 5 4 3 3 5 5
12 2 11 16 16 14 18 11 16 8 13 21 18 21 21 22 20 19 22 23 24 21 19 18 20 19 16 16 15 13 11 6 9 8 9 8 7 7 7 6 7 7 5 5 6 5 6 3 4
13 10 15 15 7 10 28 12 17 15 18 19 21 20 23 21 18 18 21 21 22 20 19 17 21 21 17 15 14 14 16 15 13 11 8 6 6 6 6 6 7 7 7 5 5 6 7 6 6
2 7 6 7 2 9 2 3 10 17 12 18 21 18 15 18 14 15 18 16 22 23 22 19 18 17 17 16 14 13 15 16 17 14 9 12 8 5 7 7 7 6 7 5 6 6 6 5 6
11 6 3 6 7 18 14 9 12 6 10 11 14 21 11 12 13 13 14 12 7 17 22 21 22 18 17 16 14 13 14 10 11 11 10 7 7 5 8 9 9 7 7 6 6 5 5 5 5
4 4 7 8 13 12 5 9 7 9 17 20 19 19 12 13 15 16 12 13 11 7 18 21 21 18 17 17 15 15 14 14 11 10 8 5 9 7 7 10 10 6 7 6 6 3 5 5 4
6 4 5 5 7 9 7 7 4 15 24 25 23 17 12 10 7 6 8 12 12 11 5 16 19 21 19 17 16 14 15 15 13 9 10 8 8 7 8 9 8 6 6 6 5 4 4 5 4
4 5 3 4 4 6 10 6 2 9 15 21 25 18 17 11 9 8 7 7 9 13 13 12 17 20 17 20 18 18 15 15 14 9 9 9 9 8 9 8 7 6 6 5 5 5 5 6 5
5 6 3 5 7 8 12 9 4 4 12 15 18 17 6 9 8 9 10 10 11 11 14 13 16 18 17 18 18 18 17 14 15 11 10 8 7 7 8 7 7 6 5 5 5 5 5 5 5
Wind_Direction
327 324 87 37 54 65 244 253 251 318 323 339 152 151 184 157 181 208 183 128 139 146 152 158 158 150 148 135 134 136 136 134 130 126 122 118 115 115 107 99 89 91 86 86 84 79 74 70 68
324 315 45 80 98 142 263 255 262 232 260 170 2 11 110 198 161 141 137 169 145 146 148 153 150 145 145 139 139 141 140 137 133 130 126 121 117 108 108 105 99 98 90 86 83 80 78 74 71
324 19 91 129 144 189 221 222 181 296 150 28 112 117 257 239 254 171 155 152 141 146 147 147 144 144 144 142 142 143 142 140 138 134 127 122 122 121 111 108 110 92 96 95 92 89 85 80 76
36 10 33 116 204 230 198 218 272 344 89 105 102 268 313 212 193 180 148 143 138 140 145 145 145 149 149 146 148 148 148 145 142 137 136 131 124 122 104 96 84 93 90 90 86 83 75 73 75
32 60 212 228 257 279 254 246 230 315 272 165 134 259 260 337 114 136 144 145 143 133 139 144 148 151 152 153 152 152 152 150 147 145 140 135 131 128 124 128 125 108 98 90 83 88 96 94 91
49 105 172 243 242 250 276 260 306 248 227 170 172 154 245 92 145 153 146 148 150 141 143 147 147 152 155 155 155 154 152 152 152 150 148 145 141 139 138 121 101 91 97 100 112 116 125 112 97
157 139 210 215 236 278 247 185 202 248 276 249 151 150 254 177 173 155 144 136 158 144 137 139 146 152 153 153 153 151 151 156 156 157 155 148 145 140 127 117 117 113 117 124 115 98 95 118 95
145 140 207 206 211 258 237 217 176 186 268 41 171 194 213 175 163 148 131 142 161 152 147 145 146 152 153 155 150 149 153 155 158 156 147 144 139 132 132 119 123 146 151 137 135 89 103 103 97
129 229 240 217 188 240 250 238 267 3 188 192 207 242 298 145 151 152 157 154 168 169 166 155 151 153 146 145 153 149 156 162 161 157 156 147 151 150 139 143 138 48 183 160 98 84 84 98 93
182 222 245 187 205 234 263 216 233 207 214 235 242 195 128 154 162 173 182 176 177 177 177 168 158 154 148 153 146 145 145 150 161 162 169 167 176 161 120 105 80 64 67 73 85 83 81 91 86
253 257 258 245 247 245 262 251 221 194 226 217 232 188 164 165 182 183 189 190 183 175 176 173 165 156 150 150 143 132 136 152 175 185 197 161 124 108 92 91 74 78 75 66 66 65 67 90 94
323 309 348 329 344 315 278 302 254 219 231 214 232 188 172 183 187 196 194 190 183 179 176 171 166 160 156 152 154 147 150 166 167 195 159 133 117 114 113 111 97 82 72 88 77 74 81 84 84
243 339 333 329 317 305 272 271 259 247 242 264 255 184 184 191 199 201 197 196 186 186 179 169 164 164 157 160 142 147 177 172 169 157 151 134 130 131 116 94 90 91 90 90 89 86 96 94 90
305 292 299 296 297 287 286 283 255 137 213 260 268 213 197 195 200 197 194 192 193 192 188 174 168 165 159 163 155 166 164 155 159 154 155 123 124 126 122 112 100 92 95 95 96 101 98 91 95
287 303 308 246 236 237 302 271 253 228 233 242 256 218 209 209 202 198 195 192 188 194 191 185 177 170 160 160 155 153 149 146 149 150 121 117 123 133 127 119 108 111 100 99 88 79 88 92 90
315 279 334 322 351 265 186 260 344 261 223 237 234 228 214 213 201 204 195 193 187 184 188 184 177 170 165 157 147 144 142 137 128 139 109 111 113 117 113 116 114 115 101 102 97 99 94 91 92
335 282 286 307 258 286 248 287 345 304 259 259 238 232 216 219 215 203 191 187 181 182 179 178 179 172 156 150 137 135 134 132 127 128 113 112 116 112 115 116 114 107 97 94 114 75 102 110 103
276 282 276 284 305 308 294 287 294 301 291 272 274 266 222 207 210 203 193 181 181 178 176 167 166 167 141 134 125 114 113 106 112 119 115 116 119 108 111 114 117 116 105 96 90 105 66 99 111
267 274 277 277 282 275 268 277 282 279 276 284 266 264 278 249 219 187 193 184 178 177 172 166 154 163 143 148 144 143 140 124 99 106 115 116 116 112 108 105 110 108 107 118 119 104 107 74 96
265 282 286 278 261 256 274 277 278 271 261 265 271 256 251 253 232 205 182 184 185 181 179 166 166 160 159 160 159 132 139 118 102 105 101 109 109 117 122 127 125 118 117 112 111 106 118 86 358
275 258 275 276 284 270 284 279 282 269 251 251 251 248 242 242 240 214 193 189 188 189 180 177 165 162 160 156 128 109 99 105 111 118 112 103 103 103 112 112 118 110 99 117 130 132 128 137 44
280 249 268 276 299 286 175 287 279 279 265 245 243 247 230 232 228 202 201 189 190 191 177 176 158 165 161 159 150 158 160 155 149 139 121 107 106 101 97 95 90 96 101 102 105 117 118 122 132
253 277 274 281 274 281 274 260 289 258 264 246 239 237 224 221 218 208 206 197 194 184 177 171 160 166 159 165 164 161 153 125 126 119 120 118 105 106 94 105 101 92 86 86 95 92 92 86 120
263 303 287 265 250 259 260 233 269 269 255 259 252 245 230 217 209 202 197 195 194 183 174 163 168 156 163 164 161 161 146 140 133 140 133 133 117 112 98 106 99 100 89 87 86 76 80 91 88
87 338 308 331 311 253 11 291 240 295 268 251 260 255 235 217 203 185 184 198 201 186 172 159 166 154 163 158 156 145 145 145 143 147 149 142 128 128 125 109 95 99 105 103 96 95 90 86 95
295 189 231 276 287 290 291 249 256 264 324 318 302 278 216 200 192 188 172 157 161 192 170 169 161 153 152 146 136 130 132 133 133 134 134 132 125 136 139 125 106 99 100 91 89 90 96 99 103
311 239 223 272 257 264 251 286 309 357 347 334 326 307 205 187 188 181 177 164 159 184 173 165 153 147 147 139 134 130 126 126 127 128 128 136 126 142 129 109 109 114 105 111 102 109 110 107 109
205 298 317 329 296 296 276 273 280 339 345 327 313 305 242 204 191 174 187 165 157 152 177 151 143 139 136 130 127 126 128 123 119 125 118 113 102 119 130 103 106 119 118 110 124 130 128 119 110
333 293 297 226 217 289 311 292 3 331 339 321 309 290 276 201 158 154 117 120 144 134 136 143 130 131 135 131 128 125 124 127 120 128 130 136 136 140 117 129 134 138 123 150 145 142 142 125 118
216 270 259 307 301 278 268 274 208 18 355 331 311 296 214 156 141 126 124 125 127 133 130 128 129 127 130 125 128 127 124 127 118 133 128 123 136 129 130 147 139 134 153 167 159 159 149 129 145